STARLINK-1804 (46704 NORAD) Tracking and Keplerian Element Data

This shows tracking and keplerian element data for the satellite.

Feedback or suggestion? Click here.




ElementValue
Catalog46704
NameSTARLINK-1804
Epoch Orbit1487
Epoch Day18.25002315
Epoch Year2021
RAAN19.5007
Inclination53.0551
Eccentricity0.0003288
Argument of Perigee23.8208
Mean Anonmoly111.2048
Mean Motion15.62864408
Decay Rate-0.00012103
L11 46704U 20073AL 21018.25002315 -.00012103 00000-0 -12592-3 0 9994
L22 46704 53.0551 19.5007 0003288 23.8208 111.2048 15.62864408 14879

Live tracking and technical data element details for STARLINK-1804 (NORAD 46704). STARLINK-1804 can be tracked NOW for your location showing map with azimuth and elevation plus other details from your city location.

Track the satellite on the map from your city or location and see movement details for azimuth, elevation, latitude, longitude, range, height, and movement on the map or in text.







IsCatalogInMostPopularTable: catalog: 46704, numindb: 32
Update: records affected: 1



GetName: 46704 STARLINK-1804

Hit Count: updated at: Tue, 19 Jan 2021 02:56:50 GMT